Regional Weather Roundup
Issued by NWS Memphis, TN

Home | Current Version | Previous Version | Text Only | Print | Product List | Glossary On
Versions: 1 2 3 4 5 6 7 8 9 10 11 12 13 14 15 16 17 18 19 20 21 22 23 24 25 26 27 28 29 30 31 32 33 34 35 36 37 38 39 40 41 42 43 44 45 46 47 48 49 50
000
ASUS44 KMEG 240000
RWRMEG
MEMPHIS CWA HOURLY WEATHER ROUNDUP
NATIONAL WEATHER SERVICE MEMPHIS TN
600 PM CST TUE JAN 23 2018

...WEST TENNESSEE...

CITY           SKY/WX    TMP DP  RH WIND       PRES   REMARKS
MEMPHIS INTL   FAIR      41  30  65 NW6       30.23R
6HR MIN TEMP:  40; 6HR MAX TEMP:  47;

NWS MEMPHIS      N/A     41 N/A N/A MISG        N/A
JACKSON        CLOUDY    41  30  65 W5        30.23R
6HR MIN TEMP:  40; 6HR MAX TEMP:  42;

DYERSBURG      FAIR      39  30  70 CALM      30.24R
6HR MIN TEMP:  39; 6HR MAX TEMP:  44;



...EASTERN ARKANSAS...

CITY           SKY/WX    TMP DP  RH WIND       PRES   REMARKS
JONESBORO      FAIR      42  30  62 W5        30.23R
6HR MIN TEMP:  41; 6HR MAX TEMP:  46;

WEST MEMPHIS   FAIR      40  36  86 CALM      30.23R
6HR MIN TEMP:  40; 6HR MAX TEMP:  45;

BATESVILLE     CLEAR     43  28  55 CALM      30.25R
6HR MIN TEMP:  43; 6HR MAX TEMP:  48;

WALNUT RIDGE   FAIR      42  28  57 W5        30.23R
6HR MIN TEMP:  42; 6HR MAX TEMP:  46;

BLYTHEVILLE    FAIR      38  37  97 NW6       30.23R WCI  33
6HR MIN TEMP:  38; 6HR MAX TEMP:  46;

SEARCY         FAIR      44  30  57 CALM      30.25R
6HR MIN TEMP:  44; 6HR MAX TEMP:  53;

STUTTGART      FAIR      46  35  65 NW7       30.24R
6HR MIN TEMP:  46; 6HR MAX TEMP:  52;

PINE BLUFF     FAIR      50  27  40 NW3       30.25R
6HR MIN TEMP:  49; 6HR MAX TEMP:  56;

MONTICELLO     FAIR      50  27  40 W3        30.24R
6HR MIN TEMP:  50; 6HR MAX TEMP:  58;



...NORTH MISSISSIPPI...

CITY           SKY/WX    TMP DP  RH WIND       PRES   REMARKS
TUPELO         FAIR      45  29  53 NW8       30.22R
6HR MIN TEMP:  45; 6HR MAX TEMP:  53;

CLARKSDALE     CLEAR     46  37  71 CALM      30.24R
GREENWOOD      FAIR      48  34  58 N5        30.23R
6HR MIN TEMP:  48; 6HR MAX TEMP:  54;

COLUMBUS       FAIR      48  34  58 NW9       30.19R
6HR MIN TEMP:  48; 6HR MAX TEMP:  56;

STARKVILLE     FAIR      48  32  53 NW7       30.19R
GOLDEN TRIANGL FAIR      48  33  56 W7        30.20R
6HR MIN TEMP:  48; 6HR MAX TEMP:  57;



...SOUTHEAST MISSOURI...

CITY           SKY/WX    TMP DP  RH WIND       PRES   REMARKS
KENNETT        FAIR      39  32  75 CALM      30.22R
MALDEN         FAIR      43  32  65 W5        30.21R
WEST PLAINS    CLEAR     34  26  72 NW5       30.21R WCI  30
6HR MIN TEMP:  34; 6HR MAX TEMP:  42;

POPLAR BLUFF   FAIR      41  27  57 NW3       30.21R
6HR MIN TEMP:  40; 6HR MAX TEMP:  47;

CAPE GIRARDEAU CLOUDY    39  29  67 NW6       30.21R WCI  35
6HR MIN TEMP:  38; 6HR MAX TEMP:  42;



...NORTHWEST ALABAMA...

CITY           SKY/WX    TMP DP  RH WIND       PRES   REMARKS
MUSCLE SHOALS  FAIR      41  28  60 NW8       30.21R
6HR MIN TEMP:  41; 6HR MAX TEMP:  49;



...MIDDLE TENNESSEE...

CITY           SKY/WX    TMP DP  RH WIND       PRES   REMARKS
NASHVILLE      CLOUDY    41  29  62 W8        30.18R
6HR MIN TEMP:  41; 6HR MAX TEMP:  46;

CLARKSVILLE    CLOUDY    40  28  62 NW13      30.18R WCI  32
6HR MIN TEMP:  40; 6HR MAX TEMP:  42;



...WESTERN KENTUCKY...

CITY           SKY/WX    TMP DP  RH WIND       PRES   REMARKS
PADUCAH        CLOUDY    39  27  62 NW5       30.20R
6HR MIN TEMP:  39; 6HR MAX TEMP:  41;

FORT CAMPBELL  CLOUDY    40  29  66 W12       30.17R WCI  32
6HR MIN TEMP:  40; 6HR MAX TEMP:  41;



...CENTRAL ARKANSAS...

CITY           SKY/WX    TMP DP  RH WIND       PRES   REMARKS
LITTLE ROCK    CLEAR     46  28  49 NW7       30.25R
6HR MIN TEMP:  46; 6HR MAX TEMP:  53;



SKY/WX REPORTED AS FAIR MEANS FEW OR NO CLOUDS BELOW
12 THOUSAND FEET.




USA.gov is the U.S. government's official web portal to all federal, state and local government web resources and services.